Flag for Germany Weather past 2 weeks in Düren, North Rhine-Westphalia, Germany

Now
66 °F

Mild.


Feels Like: 66 °F
Forecast: 44 / 67 °F
Wind: 2 mph from Northeast

Location: Noervenich

Current Time: May 22, 2015 at 5:31:42 PM

Latest Report: May 22, 2015 at 4:20 PM


Visibility: N/A

Pressure: 30.24 "Hg

Humidity: 40%

Dew point: 41 °F

Location of DürenLocation

Historic Weather in Düren — Graph

°F

Düren temperature yesterday

Maximum temperature yesterday: 63 °F (at 4:20 PM)
Minimum temperature yesterday: 39 °F (at 5:20 AM)
Average temperature yesterday: 53 °F

Past Weeks' High & Low Weather Summary

 TemperatureHumidityPressure
High81 °F (May 11, 4:20 PM)100% (May 15, 1:20 AM)30.33 "Hg (May 15, 1:20 AM)
Low39 °F (May 21, 5:20 AM)30% (May 11, 4:20 PM)29.65 "Hg (May 18, 7:20 PM)
Average56 °F66%30.06 "Hg
* Reported May 7 4:20 PM — May 22 4:20 PM, Düren, Weather by CustomWeather, © 2015

Note: Actual official high and low records may vary slightly from our data, if they occured in-between our weather recording intervals... More about our weather records

Advertising

Düren weather history for previous 24 hours

 ConditionsComfort  
Time TempWeatherWind HumidityBarometerVisibility
4:20 PM
Fri, May 22
66 °FMild.2 mph40%30.24 "HgN/A
3:20 PM64 °FMild.3 mph43%30.24 "HgN/A
2:20 PM64 °FMild.2 mph40%30.27 "HgN/A
1:20 PM63 °FMild.2 mph45%30.27 "HgN/A
12:20 PM61 °FPartly sunny.2 mph48%30.30 "HgN/A
11:20 AM61 °FScattered clouds.3 mph52%30.33 "HgN/A
10:20 AM59 °FPartly sunny.3 mph55%30.33 "HgN/A
9:20 AM57 °FPartly sunny.2 mph59%30.33 "HgN/A
8:20 AM54 °FPartly sunny.No wind67%30.33 "HgN/A
7:20 AM50 °FPartly sunny.1 mph82%30.33 "HgN/A
6:20 AM46 °FPassing clouds.No wind87%30.33 "HgN/A
5:20 AM48 °FPassing clouds.No wind82%30.33 "HgN/A
4:20 AM48 °FPassing clouds.1 mph82%30.33 "HgN/A
3:20 AM48 °FPassing clouds.5 mph82%30.33 "HgN/A
2:20 AM50 °FPassing clouds.5 mph76%30.33 "HgN/A
1:20 AM52 °FPartly cloudy.3 mph72%30.33 "HgN/A
12:20 AM54 °FPassing clouds.3 mph67%30.33 "HgN/A
11:20 PM
Thu, May 21
57 °FPassing clouds.6 mph59%30.33 "HgN/A
10:20 PM57 °FPartly sunny.5 mph63%30.33 "HgN/A
9:20 PM57 °FBroken clouds.3 mph59%30.30 "HgN/A
8:20 PM59 °FBroken clouds.2 mph55%30.27 "HgN/A
7:20 PM61 °FPartly sunny.5 mph52%30.27 "HgN/A
6:20 PM61 °FPartly sunny.2 mph52%30.27 "HgN/A
5:20 PM61 °FPartly sunny.2 mph48%30.27 "HgN/A
5:00 PM61 °FPartly sunny.2 mph48%30.27 "HgN/A
Weather by CustomWeather, © 2015

See weather overviewHow to use our weather pages